H1 CPF 2 NER 2021 5 7 9 127 01 glonass137 H2 1705501 9137 42939 2021 5 7 0 0 0 2021 5 10 23 45 0 900 1 1 0 0 0 1 H9 10 0 59341 0.00000 0 11590443.860 15984079.700 16168849.959 10 0 59341 900.00000 0 9773146.136 14883859.585 18281305.355 10 0 59341 1800.00000 0 7665628.286 13816557.694 20039170.736 10 0 59341 2700.00000 0 5307478.327 12833858.168 21408350.142 10 0 59341 3600.00000 0 2748393.850 11980289.759 22362273.422 10 0 59341 4500.00000 0 46371.048 11291344.094 22882409.180 10 0 59341 5400.00000 0 -2734452.058 10791990.960 22958623.900 10 0 59341 6300.00000 0 -5526210.172 10495652.599 22589380.541 10 0 59341 7200.00000 0 -8259884.139 10403679.829 21781772.671 10 0 59341 8100.00000 0 -10867927.716 10505351.928 20551393.234 10 0 59341 9000.00000 0 -13286839.848 10778400.474 18922039.821 10 0 59341 9900.00000 0 -15459576.410 11190035.506 16925261.463 10 0 59341 10800.00000 0 -17337701.866 11698431.252 14599754.751 10 0 59341 11700.00000 0 -18883191.704 12254609.360 11990620.106 10 0 59341 12600.00000 0 -20069810.682 12804640.564 9148491.815 10 0 59341 13500.00000 0 -20884009.456 13292072.068 6128558.108 10 0 59341 14400.00000 0 -21325302.137 13660477.996 2989489.937 10 0 59341 15300.00000 0 -21406109.013 13856024.701 -207700.714 10 0 59341 16200.00000 0 -21151071.246 13829941.727 -3400850.507 10 0 59341 17100.00000 0 -20595866.714 13540792.914 -6527858.815 10 0 59341 18000.00000 0 -19785577.301 12956450.419 -9527901.704 10 0 59341 18900.00000 0 -18772677.113 12055686.874 -12342621.467 10 0 59341 19800.00000 0 -17614727.114 10829317.073 -14917267.803 10 0 59341 20700.00000 0 -16371874.148 9280839.703 -17201767.661 10 0 59341 21600.00000 0 -15104260.473 7426550.836 -19151702.531 10 0 59341 22500.00000 0 -13869453.487 5295123.234 -20729173.945 10 0 59341 23400.00000 0 -12720004.281 2926668.187 -21903540.243 10 0 59341 24300.00000 0 -11701237.876 371318.265 -22652010.581 10 0 59341 25200.00000 0 -10849367.940 -2312610.505 -22960084.920 10 0 59341 26100.00000 0 -10190014.875 -5060800.950 -22821831.904 10 0 59341 27000.00000 0 -9737188.935 -7805371.180 -22239999.660 10 0 59341 27900.00000 0 -9492780.346 -10477464.296 -21225957.787 10 0 59341 28800.00000 0 -9446576.993 -13009884.083 -19799471.965 10 0 59341 29700.00000 0 -9576808.015 -15339667.678 -17988315.792 10 0 59341 30600.00000 0 -9851189.546 -17410488.849 -15827727.471 10 0 59341 31500.00000 0 -10228427.760 -19174792.460 -13359722.012 10 0 59341 32400.00000 0 -10660115.124 -20595572.086 -10632272.279 10 0 59341 33300.00000 0 -11092939.264 -21647717.543 -7698374.821 10 0 59341 34200.00000 0 -11471110.703 -22318877.023 -4615018.751 10 0 59341 35100.00000 0 -11738906.509 -22609798.933 -1442077.814 10 0 59341 36000.00000 0 -11843222.030 -22534140.241 1758852.727 10 0 59341 36900.00000 0 -11736022.621 -22117750.486 4925651.480 10 0 59341 37800.00000 0 -11376591.525 -21397462.568 7996875.284 10 0 59341 38700.00000 0 -10733478.664 -20419441.980 10912949.093 10 0 59341 39600.00000 0 -9786067.858 -19237164.549 13617318.230 10 0 59341 40500.00000 0 -8525695.912 -17909108.066 16057540.907 10 0 59341 41400.00000 0 -6956275.902 -16496254.911 18186300.210 10 0 59341 42300.00000 0 -5094397.701 -15059510.432 19962316.352 10 0 59341 43200.00000 0 -2968900.495 -13657144.982 21351142.201 10 0 59341 44100.00000 0 -619933.894 -12342366.306 22325827.312 10 0 59341 45000.00000 0 1902454.465 -11161123.345 22867438.153 10 0 59341 45900.00000 0 4540147.576 -10150232.681 22965424.953 10 0 59341 46800.00000 0 7229129.453 -9335905.382 22617828.290 10 0 59341 47700.00000 0 9901908.531 -8732735.416 21831321.391 10 0 59341 48600.00000 0 12490094.840 -8343191.544 20621087.032 10 0 59341 49500.00000 0 14927025.174 -8157633.795 19010530.806 10 0 59341 50400.00000 0 17150328.051 -8154853.787 17030835.565 10 0 59341 51300.00000 0 19104322.527 -8303116.264 14720364.750 10 0 59341 52200.00000 0 20742151.416 -8561658.164 12123925.224 10 0 59341 53100.00000 0 22027560.036 -8882582.227 9291903.144 10 0 59341 54000.00000 0 22936246.217 -9213065.247 6279288.989 10 0 59341 54900.00000 0 23456724.937 -9497787.537 3144610.306 10 0 59341 55800.00000 0 23590671.169 -9681480.503 -51207.076 10 0 59341 56700.00000 0 23352726.469 -9711483.855 -3246026.964 10 0 59341 57600.00000 0 22769777.479 -9540203.305 -6377716.282 10 0 59341 58500.00000 0 21879736.867 -9127363.610 -9385359.674 10 0 59341 59400.00000 0 20729878.433 -8441960.333 -12210450.862 10 0 59341 60300.00000 0 19374796.941 -7463826.435 -14798036.797 10 0 59341 61200.00000 0 17874079.239 -6184746.176 -17097791.576 10 0 59341 62100.00000 0 16289785.238 -4609068.013 -19064998.792 10 0 59341 63000.00000 0 14683845.280 -2753789.419 -20661422.969 10 0 59341 63900.00000 0 13115483.679 -648108.982 -21856053.015 10 0 59341 64800.00000 0 11638776.802 1667536.443 -22625703.494 10 0 59341 65700.00000 0 10300448.074 4142910.113 -22955462.367 10 0 59341 66600.00000 0 9137992.058 6719829.889 -22838976.875 10 0 59341 67500.00000 0 8178205.590 9334362.118 -22278572.537 10 0 59341 68400.00000 0 7436186.685 11919264.062 -21285203.295 10 0 59341 69300.00000 0 6914842.138 14406573.604 -19878234.140 10 0 59341 70200.00000 0 6604923.321 16730238.927 -18085060.652 10 0 59341 71100.00000 0 6485587.405 18828679.205 -15940572.950 10 0 59341 72000.00000 0 6525459.269 20647170.093 -13486474.542 10 0 59341 72900.00000 0 6684148.245 22139955.208 -10770469.348 10 0 59341 73800.00000 0 6914154.778 23271996.161 -7845332.668 10 0 59341 74700.00000 0 7163085.738 24020288.747 -4767884.290 10 0 59341 75600.00000 0 7376084.106 24374691.093 -1597883.784 10 0 59341 76500.00000 0 7498369.813 24338229.989 1603130.421 10 0 59341 77400.00000 0 7477783.891 23926873.452 4773035.351 10 0 59341 78300.00000 0 7267228.046 23168779.940 7850327.887 10 0 59341 79200.00000 0 6826896.224 22103056.509 10775315.802 10 0 59341 80100.00000 0 6126203.656 20778078.628 13491272.271 10 0 59341 81000.00000 0 5145331.613 19249442.592 15945531.706 10 0 59341 81900.00000 0 3876322.249 17577636.531 18090506.032 10 0 59341 82800.00000 0 2323676.866 15825527.579 19884602.143 10 0 59341 83700.00000 0 504431.535 14055770.055 21293023.415 10 0 59341 84600.00000 0 -1552294.251 12328242.554 22288440.429 10 0 59341 85500.00000 0 -3806258.294 10697620.395 22851518.420 10 0 59342 0.00000 0 -6207527.193 9211184.026 22971291.818 10 0 59342 900.00000 0 -8698320.876 7906954.255 22645378.754 10 0 59342 1800.00000 0 -11215194.239 6812230.799 21880031.542 10 0 59342 2700.00000 0 -13691467.536 5942595.865 20690021.635 10 0 59342 3600.00000 0 -16059805.273 5301422.225 19098360.926 10 0 59342 4500.00000 0 -18254837.466 4879907.318 17135863.863 10 0 59342 5400.00000 0 -20215714.997 4657631.048 14840558.050 10 0 59342 6300.00000 0 -21888493.029 4603613.865 12256953.743 10 0 59342 7200.00000 0 -23228243.137 4677830.506 9435185.663 10 0 59342 8100.00000 0 -24200805.777 4833115.402 6430043.098 10 0 59342 9000.00000 0 -24784109.494 5017379.050 3299906.722 10 0 59342 9900.00000 0 -24969001.117 5176041.287 105612.817 10 0 59342 10800.00000 0 -24759551.752 5254577.802 -3090732.818 10 0 59342 11700.00000 0 -24172825.424 5201071.257 -6226967.723 10 0 59342 12600.00000 0 -23238119.925 4968657.919 -9242087.964 10 0 59342 13500.00000 0 -21995711.887 4517764.988 -12077441.285 10 0 59342 14400.00000 0 -20495159.087 3818042.639 -14677874.187 10 0 59342 15300.00000 0 -18793231.773 2849907.773 -16992809.861 10 0 59342 16200.00000 0 -16951560.444 1605632.972 -18977235.540 10 0 59342 17100.00000 0 -15034099.289 89933.477 -20592579.807 10 0 59342 18000.00000 0 -13104512.172 -1679973.639 -21807462.695 10 0 59342 18900.00000 0 -11223590.878 -3674841.603 -22598304.220 10 0 59342 19800.00000 0 -9446813.743 -5854378.595 -22949779.857 10 0 59342 20700.00000 0 -7822146.559 -8168704.363 -22855114.497 10 0 59342 21600.00000 0 -6388177.148 -10560218.718 -22316209.661 10 0 59342 22500.00000 0 -5172660.731 -12965804.444 -21343601.888 10 0 59342 23400.00000 0 -4191535.893 -15319273.222 -19956253.433 10 0 59342 24300.00000 0 -3448450.996 -17553953.033 -18181179.588 10 0 59342 25200.00000 0 -2934819.461 -19605309.609 -16052919.955 10 0 59342 26100.00000 0 -2630400.177 -21413492.917 -13612864.043 10 0 59342 27000.00000 0 -2504377.163 -22925702.858 -10908444.322 10 0 59342 27900.00000 0 -2516891.737 -24098275.844 -7992212.388 10 0 59342 28800.00000 0 -2620961.437 -24898405.446 -4920816.341 10 0 59342 29700.00000 0 -2764703.713 -25305425.740 -1753899.339 10 0 59342 30600.00000 0 -2893769.611 -25311604.191 1447059.140 10 0 59342 31500.00000 0 -2953884.004 -24922411.469 4619936.550 10 0 59342 32400.00000 0 -2893384.442 -24156257.570 7703171.719 10 0 59342 33300.00000 0 -2665650.932 -23043705.863 10636957.070 10 0 59342 34200.00000 0 -2231323.693 -21626198.518 13364395.376 10 0 59342 35100.00000 0 -1560214.953 -19954347.097 15832598.896 10 0 59342 36000.00000 0 -632833.766 -18085859.970 17993709.901 10 0 59342 36900.00000 0 558540.839 -16083193.269 19805823.284 10 0 59342 37800.00000 0 2009284.166 -14011023.199 21233794.030 10 0 59342 38700.00000 0 3702372.813 -11933644.709 22249914.561 10 0 59342 39600.00000 0 5608857.553 -9912404.385 22834449.422 10 0 59342 40500.00000 0 7688843.837 -8003273.704 22976017.452 10 0 59342 41400.00000 0 9892940.506 -6254662.862 22671814.308 10 0 59342 42300.00000 0 12164117.851 -4705565.428 21927671.007 10 0 59342 43200.00000 0 14439899.194 -3384110.277 20757947.094 10 0 59342 44100.00000 0 16654796.143 -2306580.490 19185259.893 10 0 59342 45000.00000 0 18742887.181 -1476939.590 17240054.357 10 0 59342 45900.00000 0 20640433.044 -886884.452 14960020.908 10 0 59342 46800.00000 0 22288420.307 -516422.239 12389371.606 10 0 59342 47700.00000 0 23634927.056 -334946.834 9577987.878 10 0 59342 48600.00000 0 24637211.622 -302769.134 6580455.694 10 0 59342 49500.00000 0 25263436.475 -373036.259 3455006.474 10 0 59342 50400.00000 0 25493954.410 -493958.186 262384.337 10 0 59342 51300.00000 0 25322102.399 -611246.953 -2935338.087 10 0 59342 52200.00000 0 24754469.176 -670664.376 -6075971.802 10 0 59342 53100.00000 0 23810624.803 -620569.419 -9098427.123 10 0 59342 54000.00000 0 22522323.288 -414356.169 -11943908.514 10 0 59342 54900.00000 0 20932211.687 -12677.993 -14557064.523 10 0 59342 55800.00000 0 19092100.020 614637.473 -16887069.681 10 0 59342 56700.00000 0 17060864.877 1487064.687 -18888616.832 10 0 59342 57600.00000 0 14902074.928 2612313.416 -20522800.312 10 0 59342 58500.00000 0 12681438.175 3985764.847 -21757872.698 10 0 59342 59400.00000 0 10464177.960 5590435.293 -22569860.596 10 0 59342 60300.00000 0 8312447.418 7397469.946 -22943027.851 10 0 59342 61200.00000 0 6282890.248 9367146.684 -22870177.540 10 0 59342 62100.00000 0 4424449.098 11450348.569 -22352787.392 10 0 59342 63000.00000 0 2776512.235 13590444.044 -21400976.373 10 0 59342 63900.00000 0 1367474.884 15725496.664 -20033303.457 10 0 59342 64800.00000 0 213773.982 17790712.472 -18276402.705 10 0 59342 65700.00000 0 -680564.788 19721023.170 -16164461.873 10 0 59342 66600.00000 0 -1323850.262 21453697.402 -13738554.767 10 0 59342 67500.00000 0 -1736124.252 22930871.307 -11045840.343 10 0 59342 68400.00000 0 -1948062.044 24101892.809 -8138644.108 10 0 59342 69300.00000 0 -1999422.648 24925381.761 -5073439.810 10 0 59342 70200.00000 0 -1937115.436 25370920.016 -1909751.314 10 0 59342 71100.00000 0 -1812965.840 25420300.944 1291003.901 10 0 59342 72000.00000 0 -1681275.336 25068286.373 4466706.829 10 0 59342 72900.00000 0 -1596279.529 24322839.631 7555741.377 10 0 59342 73800.00000 0 -1609612.230 23204825.252 10498187.665 10 0 59342 74700.00000 0 -1767883.031 21747188.254 13236980.980 10 0 59342 75600.00000 0 -2110470.946 19993647.536 15719014.150 10 0 59342 76500.00000 0 -2667627.453 17996958.084 17896162.286 10 0 59342 77400.00000 0 -3458969.184 15816814.473 19726210.515 10 0 59342 78300.00000 0 -4492424.144 13517482.836 21173667.357 10 0 59342 79200.00000 0 -5763676.435 11165259.406 22210448.685 10 0 59342 80100.00000 0 -7256133.620 8825860.836 22816419.568 10 0 59342 81000.00000 0 -8941419.262 6561853.966 22979784.059 10 0 59342 81900.00000 0 -10780371.383 4430230.985 22697315.625 10 0 59342 82800.00000 0 -12724506.571 2480229.898 21974423.778 10 0 59342 83700.00000 0 -14717890.118 751490.000 20825055.339 10 0 59342 84600.00000 0 -16699335.617 -727381.746 19271431.686 10 0 59342 85500.00000 0 -18604843.427 -1939774.364 17343626.311 10 0 59343 0.00000 0 -20370177.187 -2881527.023 15078990.024 10 0 59343 900.00000 0 -21933471.328 -3560855.152 12521433.627 10 0 59343 1800.00000 0 -23237761.111 -3997752.420 9720582.009 10 0 59343 2700.00000 0 -24233328.277 -4222893.427 6730814.257 10 0 59343 3600.00000 0 -24879764.777 -4276084.692 3610208.853 10 0 59343 4500.00000 0 -25147666.249 -4204329.100 419414.043 10 0 59343 5400.00000 0 -25019883.830 -4059586.582 -2779534.364 10 0 59343 6300.00000 0 -24492280.625 -3896326.458 -5924424.346 10 0 59343 7200.00000 0 -23573960.284 -3768975.981 -8954083.792 10 0 59343 8100.00000 0 -22286957.381 -3729374.190 -11809576.959 10 0 59343 9000.00000 0 -20665402.159 -3824340.025 -14435357.219 10 0 59343 9900.00000 0 -18754194.481 -4093458.755 -16780352.843 10 0 59343 10800.00000 0 -16607242.560 -4567181.476 -18798964.223 10 0 59343 11700.00000 0 -14285340.341 -5265319.034 -20451952.854 10 0 59343 12600.00000 0 -11853772.574 -6195994.857 -21707204.651 10 0 59343 13500.00000 0 -9379747.788 -7355101.681 -22540352.965 10 0 59343 14400.00000 0 -6929766.326 -8726285.789 -22935249.510 10 0 59343 15300.00000 0 -4567033.136 -10281460.044 -22884274.444 10 0 59343 16200.00000 0 -2349022.720 -11981824.741 -22388480.051 10 0 59343 17100.00000 0 -325297.012 -13779353.994 -21457565.618 10 0 59343 18000.00000 0 1464333.734 -15618685.742 -20109684.372 10 0 59343 18900.00000 0 2991231.607 -17439336.590 -18371086.418 10 0 59343 19800.00000 0 4238875.420 -19178149.082 -16275604.767 10 0 59343 20700.00000 0 5203290.836 -20771869.104 -13863994.533 10 0 59343 21600.00000 0 5892950.003 -22159745.694 -11183138.153 10 0 59343 22500.00000 0 6328146.589 -23286044.495 -8285132.088 10 0 59343 23400.00000 0 6539874.096 -24102369.588 -5226272.885 10 0 59343 24300.00000 0 6568256.197 -24569696.483 -2065962.396 10 0 59343 25200.00000 0 6460596.559 -24660031.110 1134446.426 10 0 59343 26100.00000 0 6269131.536 -24357625.340 4312840.459 10 0 59343 27000.00000 0 6048581.494 -23659698.184 7407550.803 10 0 59343 27900.00000 0 5853604.837 -22576632.537 10358547.174 10 0 59343 28800.00000 0 5736262.680 -21131639.321 13108599.040 10 0 59343 29700.00000 0 5743601.499 -19359903.083 15604381.210 10 0 59343 30600.00000 0 5915455.919 -17307244.618 17797502.793 10 0 59343 31500.00000 0 6282564.383 -15028356.249 19645440.018 10 0 59343 32400.00000 0 6865077.260 -12584682.896 21112355.517 10 0 59343 33300.00000 0 7671520.479 -10042036.518 22169788.872 10 0 59343 34200.00000 0 8698258.726 -7468042.440 22797205.636 10 0 59343 35100.00000 0 9929481.542 -4929522.733 22982394.736 10 0 59343 36000.00000 0 11337713.905 -2489924.292 22721706.847 10 0 59343 36900.00000 0 12884831.137 -206897.431 22020129.126 10 0 59343 37800.00000 0 14523537.014 1869875.489 20891194.623 10 0 59343 38700.00000 0 16199244.649 3700512.102 19356727.540 10 0 59343 39600.00000 0 17852282.698 5256347.310 17446428.522 10 0 59343 40500.00000 0 19420335.669 6520877.465 15197307.113 10 0 59343 41400.00000 0 20841016.943 7490192.660 12652971.390 10 0 59343 42300.00000 0 22054467.029 8172879.534 9862787.729 10 0 59343 43200.00000 0 23005868.131 8589399.179 6880926.323 10 0 59343 44100.00000 0 23647769.071 8770966.805 3765310.516 10 0 59343 45000.00000 0 23942122.171 8757980.862 576490.346 10 0 59343 45900.00000 0 23861945.542 8598068.587 -2623537.646 10 0 59343 46800.00000 0 23392539.796 8343831.288 -5772540.899 10 0 59343 47700.00000 0 22532206.930 8050385.630 -8809267.315 10 0 59343 48600.00000 0 21292440.177 7772805.943 -11674643.282 10 0 59343 49500.00000 0 19697575.991 7563576.884 -14312929.142 10 0 59343 50400.00000 0 17783922.206 7470165.261 -16672808.837 10 0 59343 51300.00000 0 15598398.517 7532814.784 -18708392.011 10 0 59343 52200.00000 0 13196746.000 7782657.824 -20380108.789 10 0 59343 53100.00000 0 10641380.528 8240224.731 -21655479.684 10 0 59343 54000.00000 0 7998979.701 8914414.228 -22509745.838 10 0 59343 54900.00000 0 5337903.873 9801968.828 -22926347.679 10 0 59343 55800.00000 0 2725558.644 10887477.742 -22897243.030 10 0 59343 56700.00000 0 225808.296 12143907.524 -22423059.026 10 0 59343 57600.00000 0 -2103452.782 13533638.448 -21513075.242 10 0 59343 58500.00000 0 -4212470.281 15009963.307 -20185038.735 10 0 59343 59400.00000 0 -6061452.538 16518985.955 -18464814.837 10 0 59343 60300.00000 0 -7621970.814 18001840.097 -16385880.614 10 0 59343 61200.00000 0 -8877880.261 19397135.328 -13988670.909 10 0 59343 62100.00000 0 -9825724.767 20643527.861 -11319789.737 10 0 59343 63000.00000 0 -10474610.435 21682308.081 -8431102.332 10 0 59343 63900.00000 0 -10845554.642 22459896.258 -5378725.625 10 0 59343 64800.00000 0 -10970339.695 22930141.576 -2221936.879 10 0 59343 65700.00000 0 -10889920.804 23056327.863 977978.183 10 0 59343 66600.00000 0 -10652456.700 22812801.708 4158915.099 10 0 59343 67500.00000 0 -10311047.032 22186154.527 7259154.976 10 0 59343 68400.00000 0 -9921272.820 21175908.890 10218559.927 10 0 59343 69300.00000 0 -9538644.288 19794680.162 12979736.351 10 0 59343 70200.00000 0 -9216064.106 18067806.552 15489143.699 10 0 59343 71100.00000 0 -9001413.160 16032462.640 17698127.606 10 0 59343 72000.00000 0 -8935360.617 13736293.059 19563857.761 10 0 59343 72900.00000 0 -9049490.460 11235622.676 21050153.048 10 0 59343 73800.00000 0 -9364823.375 8593316.996 22128178.639 10 0 59343 74700.00000 0 -9890796.222 5876380.939 22777002.123 10 0 59343 75600.00000 0 -10624742.336 3153394.650 22983998.479 10 0 59343 76500.00000 0 -11551895.058 491891.619 22745096.320 10 0 59343 77400.00000 0 -12645915.171 -2044213.137 22064860.690 10 0 59343 78300.00000 0 -13869921.168 -4397039.277 20956410.560 10 0 59343 79200.00000 0 -15177980.345 -6516902.430 19441172.077 10 0 59343 80100.00000 0 -16516999.355 -8364131.578 17548471.591 10 0 59343 81000.00000 0 -17828936.004 -9910467.681 15314975.441 10 0 59343 81900.00000 0 -19053240.371 -11139985.875 12783986.370 10 0 59343 82800.00000 0 -20129423.218 -12049503.154 10004609.377 10 0 59343 83700.00000 0 -20999643.927 -12648454.977 7030802.500 10 0 59343 84600.00000 0 -21611208.907 -12958246.410 3920330.448 10 0 59343 85500.00000 0 -21918874.655 -13011105.571 733641.397 10 0 59344 0.00000 0 -21886857.669 -12848488.247 -2467311.010 10 0 59344 900.00000 0 -21490465.020 -12519101.782 -5620277.500 10 0 59344 1800.00000 0 -20717276.858 -12076632.267 -8663929.551 10 0 59344 2700.00000 0 -19567827.842 -11577272.501 -11539059.138 10 0 59344 3600.00000 0 -18055759.817 -11077155.707 -14189736.831 10 0 59344 4500.00000 0 -16207436.938 -10629804.907 -16564405.173 10 0 59344 5400.00000 0 -14061039.283 -10283706.514 -18616885.578 10 0 59344 6300.00000 0 -11665172.164 -10080111.558 -20307278.803 10 0 59344 7200.00000 0 -9077049.043 -10051157.988 -21602741.346 10 0 59344 8100.00000 0 -6360323.660 -10218393.776 -22478122.862 10 0 59344 9000.00000 0 -3582661.556 -10591763.396 -22916452.494 10 0 59344 9900.00000 0 -813151.980 -11169100.511 -22909265.063 10 0 59344 10800.00000 0 1880332.458 -11936148.304 -22456761.259 10 0 59344 11700.00000 0 4433719.104 -12867106.618 -21567799.102 10 0 59344 12600.00000 0 6789154.649 -13925682.803 -20259717.204 10 0 59344 13500.00000 0 8897160.906 -15066602.100 -18557993.496 10 0 59344 14400.00000 0 10718438.295 -16237513.986 -16495746.181 10 0 59344 15300.00000 0 12225243.118 -17381214.273 -14113086.721 10 0 59344 16200.00000 0 13402282.599 -18438089.483 -11456337.451 10 0 59344 17100.00000 0 14247091.888 -19348680.577 -8577129.023 10 0 59344 18000.00000 0 14769878.785 -20056258.106 -5531395.374 10 0 59344 18900.00000 0 14992844.365 -20509300.273 -2378285.834 10 0 59344 19800.00000 0 14949009.580 -20663769.500 820984.342 10 0 59344 20700.00000 0 14680598.550 -20485091.518 4004322.395 10 0 59344 21600.00000 0 14237047.859 -19949753.593 7109962.216 10 0 59344 22500.00000 0 13672726.674 -19046454.414 10077660.764 10 0 59344 23400.00000 0 13044464.446 -17776757.148 12849863.432 10 0 59344 24300.00000 0 12408990.846 -16155217.868 15372815.979 10 0 59344 25200.00000 0 11820395.956 -14208983.484 17597601.790 10 0 59344 26100.00000 0 11327717.634 -11976875.429 19481084.819 10 0 59344 27000.00000 0 10972757.429 -9507996.550 20986740.590 10 0 59344 27900.00000 0 10788216.671 -6859918.300 22085359.847 10 0 59344 28800.00000 0 10796230.872 -4096522.631 22755611.834 10 0 59344 29700.00000 0 11007363.953 -1285587.067 22984456.856 10 0 59344 30600.00000 0 11420104.637 1503788.125 22767400.442 10 0 59344 31500.00000 0 12020886.528 4203805.078 22108584.240 10 0 59344 32400.00000 0 12784631.623 6750538.147 21020711.649 10 0 59344 33300.00000 0 13675795.284 9086342.896 19524809.089 10 0 59344 34200.00000 0 14649869.657 11162005.047 17649826.803 10 0 59344 35100.00000 0 15655283.351 12938540.856 15432085.989 10 0 59344 36000.00000 0 16635618.297 14388574.514 12914582.006 10 0 59344 36900.00000 0 17532051.131 15497235.504 10146156.330 10 0 59344 37800.00000 0 18285916.563 16262538.776 7180552.595 10 0 59344 38700.00000 0 18841284.630 16695232.150 4075374.542 10 0 59344 39600.00000 0 19147442.702 16818117.661 890966.099 10 0 59344 40500.00000 0 19161176.729 16664875.894 -2310764.537 10 0 59344 41400.00000 0 18848754.389 16278443.379 -5467553.490 10 0 59344 42300.00000 0 18187525.231 15709012.201 -8517998.186 10 0 59344 43200.00000 0 17167068.988 15011737.094 -11402758.302 10 0 59344 44100.00000 0 15789842.358 14244247.784 -14065716.509 10 0 59344 45000.00000 0 14071295.815 13464072.539 -16455075.599 10 0 59344 45900.00000 0 12039454.506 12726082.649 -18524370.168 10 0 59344 46800.00000 0 9733979.880 12080066.426 -20233372.787 10 0 59344 47700.00000 0 7204750.721 11568535.659 -21548876.931 10 0 59344 48600.00000 0 4510022.341 11224857.375 -22445341.557 10 0 59344 49500.00000 0 1714240.301 11071789.756 -22905385.133 10 0 59344 50400.00000 0 -1114400.555 11120483.807 -22920119.859 10 0 59344 51300.00000 0 -3906550.524 11369992.609 -22489320.092 10 0 59344 52200.00000 0 -6594345.559 11807308.452 -21621422.087 10 0 59344 53100.00000 0 -9113984.504 12407925.942 -20333355.430 10 0 59344 54000.00000 0 -11408136.694 13136906.983 -18650209.684 10 0 59344 54900.00000 0 -13428080.631 13950402.461 -16604742.873 10 0 59344 55800.00000 0 -15135485.645 14797566.258 -14236741.425 10 0 59344 56700.00000 0 -16503763.541 15622780.668 -11592244.079 10 0 59344 57600.00000 0 -17518935.103 16368099.259 -8722644.807 10 0 59344 58500.00000 0 -18179976.639 16975803.944 -5683692.315 10 0 59344 59400.00000 0 -18498633.558 17390968.271 -2534405.686 10 0 59344 60300.00000 0 -18498710.233 17563918.640 664072.652 10 0 59344 61200.00000 0 -18214867.380 17452489.442 3849664.043 10 0 59344 62100.00000 0 -17690978.746 17023976.881 6960557.589 10 0 59344 63000.00000 0 -16978117.297 16256708.864 9936407.546 10 0 59344 63900.00000 0 -16132256.456 15141164.617 12719500.762 10 0 59344 64800.00000 0 -15211783.672 13680596.510 15255871.733 10 0 59344 65700.00000 0 -14274931.194 11891127.457 17496343.973 10 0 59344 66600.00000 0 -13377232.077 9801319.095 19397477.969 10 0 59344 67500.00000 0 -12569108.161 7451227.916 20922407.979 10 0 59344 68400.00000 0 -11893690.938 4890987.635 22041552.195 10 0 59344 69300.00000 0 -11384966.386 2178975.672 22733183.103 10 0 59344 70200.00000 0 -11066321.226 -620361.354 22983847.590 10 0 59344 71100.00000 0 -10949551.289 -3438934.250 22788628.967 10 0 59344 72000.00000 0 -11034373.530 -6207590.579 22151245.924 10 0 59344 72900.00000 0 -11308462.283 -8858741.065 21083986.259 10 0 59344 73800.00000 0 -11748008.582 -11328925.284 19607476.158 10 0 59344 74700.00000 0 -12318779.604 -13561211.038 17750288.741 10 0 59344 75600.00000 0 -12977634.322 -15507328.500 15548398.570 10 0 59344 76500.00000 0 -13674432.212 -17129450.881 13044491.678 10 0 59344 77400.00000 0 -14354255.168 -18401547.659 10287143.668 10 0 59344 78300.00000 0 -14959849.215 -19310254.129 7329881.076 10 0 59344 79200.00000 0 -15434183.013 -19855221.021 4230143.716 10 0 59344 80100.00000 0 -15723014.758 -20048929.655 1048168.089 10 0 59344 81000.00000 0 -15777358.362 -19915980.663 -2154186.315 10 0 59344 81900.00000 0 -15555743.706 -19491886.568 -5314644.571 10 0 59344 82800.00000 0 -15026174.254 -18821419.571 -8371733.480 10 0 59344 83700.00000 0 -14167698.005 -17956584.899 -11265983.880 10 0 59344 84600.00000 0 -12971524.045 -16954305.954 -13941093.938 10 0 59344 85500.00000 0 -11441636.322 -15873919.749 -16345029.905 99